Location: *
(55.6049°S, 142.1985°W)
Time: 08:03:39
(UTC+00:00)

ATLAS 5 CENTAUR R/B - Pass Details

Date: 12 May 2021
Orbit: 516 x 1141 km, 63.3° (Epoch: 02 May)

Event Time Altitude Azimuth Distance (km) Brightness Sun altitude
Exits shadow 14:22:59 32° 216° (SW) 1,561 3.3 -23.7°
Maximum altitude 14:25:10 43° 171° (S) 1,248 3.1 -23.4°
Drops below altitude 10° 14:30:26 10° 99° (E) 2,367 5.6 -22.7°
Sets 14:32:47 0° 92° (E) 3,195 6.7 -22.4°
